SCP
0 0 0 0 0 0 0 0 0 0 0 0 0 0 0 0 0 0 0 0 0 0 0 0 0 0 1 1 2 2 2 1 1 1 1 1 1 2 2 2 1 1 1
0 0 0 0 0 0 0 0 0 0 0 0 0 0 0 0 0 0 0 0 0 0 0 0 0 0 1 1 2 2 2 2 1 1 2 1 1 2 2 2 2 1 1
0 0 0 0 0 0 0 0 0 0 0 0 0 0 0 0 0 0 0 0 0 0 0 0 0 0 0 1 1 2 2 2 2 2 2 2 2 2 2 2 2 2 2
0 0 0 0 0 0 0 0 0 0 0 0 0 0 0 0 0 0 0 0 0 0 0 0 0 0 0 1 1 2 2 2 2 2 2 2 2 2 2 2 2 2 2
0 0 0 0 0 0 0 0 0 0 0 0 0 0 0 0 0 0 0 0 0 0 0 0 0 0 0 0 1 1 2 2 2 2 2 2 2 2 2 2 2 2 2
0 0 0 0 0 0 0 0 0 0 0 0 0 0 0 0 0 0 0 0 0 0 0 0 0 0 0 0 0 1 2 2 2 2 2 2 2 2 2 2 2 2 2
0 0 0 0 0 0 0 0 0 0 0 -0 -0 -0 -0 -0 0 0 0 0 0 0 0 0 0 0 0 0 0 0 1 2 2 2 2 2 2 2 2 2 2 2 2
0 0 0 0 0 0 0 0 0 0 0 -0 -0 -0 -0 -0 0 0 0 0 0 0 0 0 0 0 0 0 0 0 0 1 1 2 2 2 2 2 2 2 2 2 2
0 0 0 0 0 0 0 0 0 0 0 0 -0 -0 -0 -0 0 0 0 0 0 0 0 0 0 0 0 0 0 0 0 0 1 1 2 2 2 1 2 2 2 2 2
0 0 0 0 0 0 0 0 0 0 0 0 0 0 0 0 0 0 0 0 0 0 0 0 0 0 0 0 0 0 0 0 0 1 1 2 2 2 1 2 2 2 2
0 0 0 0 0 0 0 0 0 0 0 0 0 0 0 0 0 0 0 0 0 0 0 0 0 0 0 0 0 0 0 0 0 0 1 1 2 2 1 1 2 2 2
0 0 0 0 0 0 0 0 0 0 0 0 0 0 0 0 0 0 0 0 0 0 0 0 0 0 0 0 0 0 0 0 0 0 0 1 1 2 2 1 1 1 2
0 0 0 0 0 0 0 0 0 0 0 0 0 0 0 0 0 0 0 0 0 0 0 0 0 0 0 0 0 0 0 0 0 0 0 0 1 1 1 1 1 1 1
0 0 0 0 0 0 0 0 0 0 0 0 0 0 0 0 0 0 0 0 0 0 0 0 0 0 0 0 0 0 0 0 0 0 0 0 0 1 1 1 1 1 1
0 0 0 0 0 0 0 0 0 0 0 0 0 0 0 0 0 0 0 0 0 0 0 0 0 0 0 0 0 0 0 0 0 0 0 0 0 0 0 1 1 1 1
0 0 0 0 0 0 0 -0 -0 -0 0 0 0 0 0 0 0 0 0 0 0 0 0 0 0 0 0 0 0 0 0 0 0 0 0 0 0 0 0 0 0 0 0
0 0 0 0 0 0 0 0 0 0 0 0 0 0 0 0 0 0 0 0 0 0 0 0 0 0 0 0 0 0 0 0 0 0 0 0 0 0 0 0 0 0 0
0 0 0 0 0 0 0 0 0 0 0 0 0 0 0 0 0 0 0 0 0 0 0 0 0 0 0 0 0 0 0 0 0 0 0 0 0 0 0 0 0 0 0
0 0 0 0 -0 0 0 0 0 0 0 0 0 0 0 0 0 0 0 0 0 0 0 0 0 0 0 0 0 0 0 0 0 0 0 0 0 0 0 0 0 0 0
0 0 0 0 -0 0 0 0 0 0 0 0 0 0 0 0 0 0 0 0 0 0 0 0 0 0 0 0 0 0 0 0 0 0 0 0 0 0 0 0 0 0 0
0 0 0 0 0 0 0 0 0 0 0 0 0 0 0 0 0 0 0 0 0 0 0 0 0 0 0 0 0 0 0 0 0 0 0 0 0 0 0 0 0 0 0
0 0 0 0 0 0 0 0 0 0 0 0 0 0 0 0 0 0 0 0 0 0 0 0 0 0 0 0 0 0 0 0 0 0 0 0 0 0 0 0 0 0 0
0 0 0 0 0 0 0 0 0 0 0 0 0 0 0 0 0 0 0 0 0 0 0 0 0 0 0 0 0 0 0 0 0 0 0 0 0 0 0 0 0 0 0
0 0 0 0 0 0 0 0 -0 -0 0 0 0 0 0 0 0 0 0 0 0 0 0 0 0 0 0 0 0 0 0 0 0 0 0 0 0 0 0 0 0 0 0
0 0 0 0 0 0 0 0 -0 0 0 0 0 0 0 0 0 0 0 -0 0 0 0 0 0 0 0 0 0 0 0 0 0 0 0 0 0 0 0 0 0 0 0
0 0 0 0 0 0 0 0 0 0 0 0 0 0 0 0 0 0 0 -0 0 0 0 0 0 0 0 0 0 0 0 0 0 0 0 0 0 0 0 0 0 0 0
Wind_Speed
7 8 7 7 8 8 9 10 10 12 13 13 12 13 14 13 12 11 10 21 24 23 23 22 21 20 20 20 21 22 24 25 26 25 25 25 25 24 24 24 23 23 23
7 8 7 7 7 8 9 9 11 11 11 11 13 14 14 13 11 12 11 14 21 22 22 21 20 20 20 20 21 22 24 26 27 27 26 26 25 25 24 24 23 23 23
7 7 7 6 7 8 10 9 10 9 10 11 13 13 12 12 13 13 13 10 11 17 20 19 19 19 19 19 19 22 23 25 27 27 27 26 25 26 25 25 24 23 23
9 7 6 6 7 8 8 9 8 10 10 11 12 11 11 12 14 13 11 10 9 9 12 17 17 17 17 17 18 20 22 23 26 27 27 27 26 26 26 25 24 24 23
9 7 6 6 8 7 7 9 9 9 11 12 12 12 11 12 12 12 11 11 8 8 6 11 15 14 14 15 16 17 20 22 24 26 27 27 27 26 26 26 25 24 24
9 8 6 7 7 7 7 8 10 9 9 11 13 13 12 13 9 8 8 7 7 9 8 9 8 9 13 14 14 15 16 20 23 24 26 27 28 27 27 26 25 25 25
10 8 7 7 7 7 8 9 9 10 9 9 10 12 11 9 5 5 6 6 7 9 10 11 8 8 7 13 14 14 13 15 19 23 24 26 27 27 27 27 26 26 25
10 9 9 8 7 7 8 8 9 7 7 7 8 10 8 6 5 8 7 5 7 9 10 12 11 10 8 6 10 14 13 13 14 18 22 25 27 28 28 27 26 26 26
10 9 9 9 8 6 7 8 8 8 9 7 5 6 7 7 11 5 5 5 8 8 9 10 11 11 10 7 7 10 13 12 12 14 18 23 26 28 28 27 26 26 26
10 10 10 9 8 8 8 9 8 7 8 9 7 5 7 8 8 8 5 4 8 9 10 11 11 11 10 6 7 12 14 12 11 11 14 18 24 27 28 26 25 25 24
8 10 11 9 9 8 9 9 9 8 7 8 7 7 8 8 8 8 11 8 8 6 8 11 9 8 8 7 5 10 15 14 11 11 11 14 19 25 27 27 25 24 23
7 9 12 9 9 9 9 10 8 9 8 8 8 7 8 7 7 7 10 12 11 8 10 9 7 7 7 6 8 15 16 15 13 11 10 9 12 18 24 26 27 26 25
9 10 11 10 10 10 11 10 9 9 8 9 8 7 7 8 8 9 10 10 10 8 6 6 7 7 7 6 7 16 13 16 15 12 11 8 7 11 18 23 26 29 28
10 11 11 12 13 12 13 10 9 9 8 8 10 9 7 8 8 8 8 9 10 7 5 7 8 5 7 8 11 15 9 16 16 14 12 9 7 8 12 17 22 26 27
11 13 13 14 13 13 13 11 9 9 8 9 9 9 8 7 7 7 7 8 8 9 8 6 4 7 8 8 12 9 8 14 16 14 12 10 7 6 10 13 17 21 23
12 14 14 14 15 14 13 11 10 9 9 9 8 8 8 7 7 7 7 7 7 8 8 6 7 9 10 10 14 9 9 16 14 13 12 10 7 6 8 11 14 18 21
13 14 15 15 16 15 14 12 11 10 10 9 9 8 9 9 7 6 6 6 6 7 9 8 7 8 10 10 9 8 7 7 7 12 11 10 7 5 7 10 12 16 19
12 14 14 15 16 15 14 12 11 10 9 9 9 8 9 7 8 7 6 7 6 7 7 10 9 8 9 9 9 8 7 6 5 10 10 9 7 4 5 8 11 14 17
12 14 14 15 16 16 14 11 9 9 8 8 8 8 8 7 8 6 6 6 6 6 6 7 8 7 6 7 8 7 6 4 6 6 7 7 5 4 4 6 9 12 15
12 13 14 15 16 16 13 10 9 8 7 7 7 7 7 6 6 7 6 5 6 6 6 6 6 6 6 6 5 5 4 4 4 4 4 4 4 3 2 5 8 10 12
13 13 14 15 16 15 12 11 9 11 10 9 8 8 7 9 11 9 7 5 6 5 5 5 6 6 5 5 5 5 5 5 4 2 2 2 2 1 0 3 5 8 10
11 12 13 15 16 15 24 25 17 11 12 12 11 10 9 10 14 18 19 17 14 9 7 5 5 6 6 6 6 6 6 4 3 3 2 2 0 0 0 1 3 7 9
11 11 12 13 15 19 27 25 26 13 11 12 12 11 10 12 12 8 13 16 14 17 15 7 6 7 7 7 8 7 6 5 4 4 4 2 1 0 1 1 3 6 8
9 8 10 12 13 18 27 23 23 12 9 11 11 11 10 11 12 11 9 9 7 9 12 7 6 6 8 7 6 6 7 7 6 4 2 2 0 1 1 2 1 4 7
8 8 9 10 12 16 25 23 19 8 9 10 11 12 12 9 20 20 11 10 8 8 13 16 15 13 15 15 11 5 5 4 3 2 0 1 0 1 2 2 3 1 6
7 9 10 10 10 11 20 23 18 6 8 8 8 11 17 18 21 21 10 9 10 8 10 11 11 12 9 10 13 6 5 4 3 2 2 1 0 1 2 2 3 3 2
Wind_Direction
341 338 335 336 336 335 333 330 328 325 326 322 319 318 315 311 304 301 303 304 304 304 301 297 293 288 283 269 248 236 225 217 212 209 206 202 198 196 195 194 191 190 189
337 336 332 332 336 335 331 328 320 323 321 319 316 315 310 304 300 300 298 300 300 301 299 296 292 290 284 278 258 241 229 222 215 211 208 205 201 198 196 196 194 193 192
334 333 327 331 334 330 327 326 319 324 320 319 315 312 307 304 301 299 298 293 294 298 297 297 294 292 288 282 270 248 234 225 219 213 209 206 203 200 198 197 196 195 194
331 330 324 328 328 328 328 324 329 328 321 319 315 310 306 302 299 296 293 291 291 291 298 303 302 298 294 287 280 259 241 230 222 215 210 206 204 202 200 199 197 197 196
328 325 316 320 326 327 326 326 332 323 322 320 315 309 306 299 293 294 293 294 296 305 309 314 317 315 310 301 291 273 250 237 227 220 213 208 205 203 202 200 199 198 198
325 322 315 320 323 324 324 324 323 320 318 317 314 310 302 290 285 286 292 306 320 331 335 331 325 322 326 323 313 296 267 246 234 226 218 211 207 204 203 201 199 199 200
322 317 321 318 318 320 319 320 322 320 322 323 316 316 298 283 288 317 312 314 340 346 341 339 333 330 323 328 324 315 297 266 243 231 222 216 210 207 206 203 200 200 200
320 324 323 318 314 315 314 319 320 319 321 332 321 319 316 314 348 324 311 326 352 344 338 336 329 328 323 318 320 324 317 292 263 241 225 217 213 210 209 206 203 201 201
320 316 317 315 312 311 311 312 310 320 319 317 314 306 316 323 324 292 308 338 344 335 330 323 322 322 317 320 321 330 328 313 285 259 236 221 215 213 211 209 205 203 201
317 318 318 314 311 312 307 307 319 308 309 313 311 286 292 298 301 310 311 327 329 326 323 320 316 312 314 315 326 336 336 326 303 279 253 232 219 215 213 209 207 205 202
315 318 318 313 313 310 304 301 302 298 300 298 300 298 296 291 275 289 304 317 319 313 315 309 304 308 316 321 330 342 343 339 324 299 277 250 229 219 215 211 207 206 204
317 315 318 313 310 306 303 301 295 294 294 291 289 290 293 292 296 295 297 307 312 314 308 299 305 314 316 331 338 344 343 341 334 324 304 275 246 229 218 212 207 204 203
322 316 315 312 309 304 302 298 297 294 288 286 286 285 284 283 286 289 291 300 305 306 299 301 311 309 329 339 333 339 337 338 338 333 323 306 265 234 220 213 208 203 201
315 310 313 311 306 302 302 297 294 288 288 285 287 285 283 281 284 285 289 300 303 300 301 298 300 308 342 330 322 331 330 334 335 333 324 319 297 244 220 211 206 201 198
317 319 315 311 307 304 299 295 291 285 283 281 281 282 279 280 283 283 286 290 295 305 308 296 309 325 324 314 315 321 322 321 328 326 322 317 307 256 220 206 199 197 195
318 318 317 315 312 310 306 299 295 288 284 282 281 280 282 281 282 283 283 282 281 288 291 297 300 300 307 308 310 317 310 316 319 320 320 315 304 266 222 201 192 192 190
322 321 320 319 318 314 312 305 299 292 286 284 284 284 285 286 286 285 285 285 284 282 286 293 293 298 299 302 306 304 301 299 302 313 319 317 304 274 223 197 187 186 186
325 324 324 325 324 324 321 315 307 302 293 290 290 291 292 296 294 289 285 285 283 278 283 293 297 298 298 303 301 299 299 297 293 308 318 319 304 279 223 191 184 180 180
327 328 330 330 330 330 331 331 322 315 308 301 298 297 298 300 303 301 294 294 292 294 290 292 297 299 298 304 309 301 300 295 291 301 318 321 307 282 213 181 176 178 177
330 333 332 332 333 331 336 341 341 340 337 333 325 315 308 306 307 308 309 309 307 303 302 299 298 303 304 310 312 321 323 317 304 310 326 327 319 312 203 174 171 171 173
337 334 334 336 338 336 345 16 17 5 360 354 348 341 337 350 355 356 354 351 345 340 331 325 320 315 323 335 340 331 321 314 295 312 329 326 347 341 128 152 157 165 168
334 335 337 338 341 343 356 21 30 13 8 5 2 1 358 7 16 14 13 15 10 3 359 350 338 333 333 337 332 328 325 323 320 2 339 317 14 163 104 126 163 170 170
331 334 334 338 340 339 358 19 24 19 10 9 7 4 3 3 18 18 10 12 6 5 7 1 342 338 329 334 329 325 325 319 307 333 334 316 28 40 47 64 167 180 179
327 327 328 335 337 340 355 16 23 14 9 6 3 360 358 354 4 27 8 0 360 357 357 357 347 338 336 336 329 314 304 297 281 265 256 278 114 91 35 33 37 182 184
320 323 329 332 335 335 348 9 27 4 8 2 360 359 358 357 5 21 14 357 358 357 357 0 2 0 358 354 358 344 328 313 297 293 220 238 114 84 44 16 3 64 171
321 328 328 328 327 325 345 2 23 16 9 1 357 354 357 9 9 15 16 357 1 359 350 348 352 353 351 348 360 355 329 315 310 300 339 324 145 129 107 24 5 16 103